Tracking 19562 objects as of 24-Mar-2019
HD Live streaming from Space Station
objects crossing your sky now

RADUGA 11

Track RADUGA 11 now!
RADUGA 11 is classified as:


NORAD ID: 13669
Int'l Code: 1982-113A
Perigee: 36,367.4 km
Apogee: 36,687.6 km
Inclination: 14.1 °
Period: 1,473.7 minutes
Semi major axis: 42898 km
RCS: 1.9952 m2 (large)
Launch date: November 26, 1982
Source: Commonwealth of Independent States (former USSR) (CIS)
Launch site: TYURATAM MISSILE AND SPACE COMPLEX (TTMTR)
aabbcc
Your satellite tracking list
Your tracking list is empty




NASA's NSSDC Master Catalog

Two Line Element Set (TLE):
1 13669U 82113A   19081.54610723 -.00000206 +00000-0 +00000-0 0  9996
2 13669 014.0831 333.6129 0037322 227.6096 327.1718 00.97710071095702
Source of the keplerian elements: AFSPC